contact:dominique.lefevre@mio.osupytheas.fr, maurice.libes@osupytheas.fr, didier.mallarino@osupytheas.fr
Project:EMSO http://www.emso-fr.org/EMSO-France
Depth: 2436.0 m
Title:EMSO Ligure Ouest : Data MII capteur AQUADOPP
Date,Latitude,Longitude,X_East,Y_North,Z_Up,Amplitude_X,Amplitude_Y,Amplitude_Z,Batterie,SoundSpeed,Heading,Pitch,Roll,Pressure,TIS,Speed,Direction
, degrees North, degrees East, m.s-1, m.s-1,m.s-1, 1, 1, 1, Volt, m.s-1, degree, degree, degree, dbar, degree_C, m.s-1, degree
2023-12-31T00:04:03,42.805,6.029,0.039,-0.033,-0.003,105.0,105.0,102.0,13.4,1505.2,341.7,-0.8,1.8,2471.558,13.28,0.051,130.2
2023-12-31T00:07:03,42.805,6.029,0.03,-0.034,-0.014,105.0,105.0,103.0,13.4,1505.2,348.5,-0.8,1.8,2471.542,13.29,0.045,138.6
2023-12-31T00:10:03,42.805,6.029,0.0,-0.038,-0.021,105.0,104.0,102.0,13.4,1505.2,355.6,-0.8,1.9,2471.562,13.29,0.038,180.0
2023-12-31T00:13:02,42.805,6.029,0.012,-0.018,-0.014,106.0,103.0,103.0,13.4,1505.2,355.9,-0.8,1.8,2471.571,13.29,0.021,146.3
2023-12-31T00:16:03,42.805,6.029,0.005,-0.002,-0.01,104.0,104.0,102.0,13.4,1505.2,0.8,-0.8,1.9,2471.501,13.29,0.005,111.8
2023-12-31T00:19:06,42.805,6.029,0.011,-0.013,0.0,106.0,103.0,103.0,13.4,1505.2,357.6,-0.8,1.8,2471.542,13.29,0.017,139.8
2023-12-31T00:22:03,42.805,6.029,0.023,-0.049,-0.008,104.0,104.0,103.0,13.4,1505.2,358.5,-0.8,1.8,2471.557,13.29,0.054,154.9
2023-12-31T00:25:03,42.805,6.029,0.02,-0.007,0.006,105.0,104.0,102.0,13.4,1505.2,0.7,-0.7,1.8,2471.543,13.29,0.021,109.3
2023-12-31T00:28:03,42.805,6.029,0.012,-0.03,-0.029,104.0,104.0,102.0,13.3,1505.2,351.7,-0.8,1.8,2471.556,13.29,0.032,158.2
2023-12-31T00:31:03,42.805,6.029,0.009,-0.013,-0.04,105.0,104.0,103.0,13.3,1505.2,0.0,-0.7,1.8,2471.526,13.29,0.015,145.3
2023-12-31T00:34:03,42.805,6.029,0.012,-0.032,0.002,105.0,104.0,103.0,13.4,1505.2,346.8,-0.7,1.8,2471.516,13.29,0.034,159.4
2023-12-31T00:37:03,42.805,6.029,0.017,-0.004,-0.046,106.0,105.0,102.0,13.4,1505.2,348.5,-0.7,1.8,2471.529,13.29,0.017,103.2
2023-12-31T00:40:03,42.805,6.029,0.037,-0.026,-0.012,105.0,105.0,103.0,13.3,1505.2,348.1,-0.8,1.8,2471.476,13.29,0.045,125.1
2023-12-31T00:43:03,42.805,6.029,0.017,-0.015,0.001,105.0,105.0,103.0,13.4,1505.2,344.9,-0.8,1.8,2471.559,13.29,0.022,131.4
2023-12-31T00:46:03,42.805,6.029,0.003,0.001,-0.004,105.0,105.0,103.0,13.3,1505.2,354.6,-0.8,1.8,2471.519,13.29,0.003,71.6
2023-12-31T00:49:03,42.805,6.029,-0.007,-0.026,0.0,105.0,105.0,103.0,13.3,1505.2,358.5,-0.8,1.8,2471.555,13.29,0.026,195.1
2023-12-31T00:52:03,42.805,6.029,0.021,-0.03,-0.01,104.0,104.0,104.0,13.3,1505.2,355.4,-0.8,1.8,2471.511,13.29,0.036,145.0
2023-12-31T00:55:03,42.805,6.029,0.029,-0.029,-0.019,105.0,106.0,103.0,13.3,1505.2,344.2,-0.8,1.8,2471.495,13.29,0.041,135.0
2023-12-31T00:58:03,42.805,6.029,0.008,-0.048,-0.021,105.0,104.0,103.0,13.4,1505.2,1.6,-0.8,1.8,2471.493,13.29,0.048,170.5
2023-12-31T02:04:02,42.805,6.029,0.006,-0.027,-0.041,104.0,104.0,103.0,13.4,1505.2,0.8,-0.8,1.8,2472.011,13.28,0.027,167.5
2023-12-31T02:07:03,42.805,6.029,0.012,-0.023,-0.02,105.0,104.0,104.0,13.4,1505.2,351.0,-0.8,1.8,2471.928,13.28,0.025,152.4
2023-12-31T02:10:03,42.805,6.029,0.014,-0.022,-0.032,106.0,104.0,104.0,13.4,1505.2,0.7,-0.8,1.8,2471.804,13.28,0.026,147.5
2023-12-31T02:13:03,42.805,6.029,0.025,-0.024,-0.033,105.0,106.0,104.0,13.4,1505.2,342.0,-0.8,1.8,2471.71,13.28,0.034,133.8
2023-12-31T02:16:03,42.805,6.029,0.0,-0.004,-0.038,105.0,105.0,103.0,13.4,1505.2,3.1,-0.8,1.8,2471.704,13.28,0.004,180.0
2023-12-31T02:19:03,42.805,6.029,0.014,-0.013,-0.027,105.0,105.0,103.0,13.4,1505.2,357.5,-0.8,1.8,2471.613,13.29,0.019,132.9
2023-12-31T02:22:03,42.805,6.029,0.011,-0.011,-0.009,105.0,105.0,103.0,13.4,1505.2,1.5,-0.7,1.8,2471.582,13.29,0.015,135.0
2023-12-31T02:25:03,42.805,6.029,0.009,-0.019,-0.027,105.0,105.0,104.0,13.4,1505.2,353.9,-0.8,1.8,2471.549,13.29,0.021,154.7
2023-12-31T02:28:03,42.805,6.029,0.0,-0.032,-0.018,105.0,105.0,104.0,13.3,1505.2,344.7,-0.8,1.8,2471.523,13.29,0.032,180.0
2023-12-31T02:31:03,42.805,6.029,0.01,-0.018,-0.023,105.0,105.0,103.0,13.3,1505.2,347.7,-0.8,1.8,2471.492,13.29,0.02,150.9
2023-12-31T02:34:03,42.805,6.029,0.011,-0.017,-0.015,105.0,104.0,104.0,13.3,1505.2,357.0,-0.8,1.8,2471.467,13.29,0.02,147.1
2023-12-31T02:37:03,42.805,6.029,0.01,-0.026,-0.027,105.0,104.0,102.0,13.3,1505.2,357.0,-0.8,1.8,2471.49,13.29,0.027,159.0
2023-12-31T02:40:03,42.805,6.029,0.022,-0.025,-0.008,104.0,106.0,103.0,13.4,1505.2,352.1,-0.8,1.8,2471.495,13.29,0.033,138.7
2023-12-31T02:43:03,42.805,6.029,0.013,-0.023,0.0,105.0,106.0,103.0,13.4,1505.2,354.7,-0.8,1.8,2471.443,13.29,0.026,150.5
2023-12-31T02:46:03,42.805,6.029,0.014,-0.037,-0.039,106.0,105.0,103.0,13.4,1505.2,354.8,-0.8,1.8,2471.472,13.29,0.039,159.3
2023-12-31T02:49:03,42.805,6.029,0.01,-0.026,-0.028,104.0,106.0,104.0,13.4,1505.2,357.5,-0.8,1.8,2471.467,13.29,0.027,159.0
2023-12-31T02:52:03,42.805,6.029,0.011,-0.028,-0.018,104.0,104.0,103.0,13.3,1505.2,354.8,-0.8,1.8,2471.496,13.29,0.03,158.6
2023-12-31T02:55:03,42.805,6.029,0.019,-0.009,0.012,105.0,105.0,103.0,13.3,1505.2,356.1,-0.7,1.8,2471.413,13.29,0.021,115.3
2023-12-31T02:58:03,42.805,6.029,0.001,-0.03,-0.035,105.0,105.0,102.0,13.4,1505.2,3.0,-0.8,1.8,2471.484,13.29,0.03,178.1
2023-12-31T04:04:02,42.805,6.029,0.0,-0.013,-0.014,105.0,104.0,104.0,13.4,1505.2,351.5,-0.8,1.8,2471.961,13.28,0.013,180.0
2023-12-31T04:07:03,42.805,6.029,0.011,-0.015,-0.024,105.0,105.0,103.0,13.3,1505.2,358.3,-0.8,1.8,2471.878,13.28,0.018,143.7
2023-12-31T04:10:03,42.805,6.029,0.007,-0.002,-0.006,105.0,105.0,102.0,13.4,1505.2,352.7,-0.8,1.8,2471.761,13.28,0.007,105.9
2023-12-31T04:13:03,42.805,6.029,0.012,-0.044,-0.007,105.0,105.0,103.0,13.4,1505.2,350.7,-0.8,1.8,2471.704,13.28,0.045,164.7
2023-12-31T04:16:03,42.805,6.029,0.017,-0.034,0.016,105.0,105.0,104.0,13.4,1505.2,351.7,-0.7,1.8,2471.642,13.29,0.038,153.4
2023-12-31T04:19:03,42.805,6.029,0.01,-0.046,0.018,106.0,104.0,102.0,13.3,1505.2,2.1,-0.7,1.8,2471.594,13.29,0.047,167.7
2023-12-31T04:22:03,42.805,6.029,0.008,-0.026,-0.002,105.0,105.0,102.0,13.4,1505.2,357.6,-0.8,1.8,2471.581,13.29,0.027,162.9
2023-12-31T04:25:03,42.805,6.029,0.012,-0.027,0.0,105.0,103.0,103.0,13.3,1505.2,1.6,-0.8,1.8,2471.506,13.29,0.029,156.0
2023-12-31T04:28:03,42.805,6.029,0.031,-0.024,-0.015,105.0,104.0,102.0,13.4,1505.2,344.2,-0.8,1.8,2471.532,13.29,0.039,127.7
2023-12-31T04:31:03,42.805,6.029,0.021,-0.032,-0.019,105.0,104.0,103.0,13.4,1505.2,351.3,-0.7,1.8,2471.475,13.29,0.038,146.7
2023-12-31T04:34:03,42.805,6.029,0.027,-0.029,-0.005,106.0,104.0,102.0,13.4,1505.2,346.5,-0.8,1.8,2471.472,13.29,0.039,137.0
2023-12-31T04:37:03,42.805,6.029,0.015,-0.041,-0.004,107.0,104.0,102.0,13.4,1505.2,354.1,-0.7,1.8,2471.485,13.29,0.043,159.9
2023-12-31T04:40:03,42.805,6.029,0.032,-0.038,-0.001,104.0,105.0,102.0,13.4,1505.2,346.3,-0.8,1.8,2471.464,13.29,0.049,139.9
2023-12-31T04:43:03,42.805,6.029,0.019,-0.037,-0.023,105.0,104.0,104.0,13.4,1505.2,352.3,-0.7,1.8,2471.476,13.29,0.041,152.8
2023-12-31T04:46:03,42.805,6.029,0.009,-0.005,-0.019,106.0,103.0,103.0,13.3,1505.2,357.5,-0.8,1.8,2471.443,13.29,0.01,119.1
2023-12-31T04:49:03,42.805,6.029,0.026,-0.04,-0.004,106.0,103.0,103.0,13.4,1505.2,341.5,-0.7,1.8,2471.467,13.29,0.047,147.0
2023-12-31T04:52:03,42.805,6.029,0.01,-0.016,-0.014,103.0,104.0,103.0,13.4,1505.2,347.7,-0.8,1.8,2471.462,13.29,0.018,148.0
2023-12-31T04:55:03,42.805,6.029,0.011,-0.019,-0.038,103.0,104.0,103.0,13.4,1505.2,352.3,-0.8,1.8,2471.449,13.29,0.021,149.9
2023-12-31T04:58:03,42.805,6.029,0.025,-0.033,-0.011,106.0,105.0,103.0,13.4,1505.2,347.7,-0.8,1.8,2471.422,13.29,0.041,142.8
2023-12-31T05:04:03,42.805,6.029,-0.005,-0.043,-0.046,104.0,105.0,103.0,13.3,1505.2,355.0,-0.8,1.8,2471.508,13.28,0.043,186.6
2023-12-31T05:07:03,42.805,6.029,0.003,-0.048,0.009,103.0,104.0,104.0,13.3,1505.2,4.6,-0.8,1.8,2471.505,13.29,0.048,176.4
2023-12-31T05:10:03,42.805,6.029,0.008,-0.036,-0.026,106.0,103.0,102.0,13.4,1505.2,345.0,-0.7,1.8,2471.51,13.29,0.036,167.5
2023-12-31T05:13:03,42.805,6.029,0.009,-0.014,-0.038,104.0,104.0,103.0,13.4,1505.2,3.0,-0.8,1.8,2471.482,13.29,0.016,147.3
2023-12-31T05:16:03,42.805,6.029,0.039,-0.01,0.003,106.0,103.0,103.0,13.4,1505.2,348.3,-0.8,1.8,2471.449,13.29,0.04,104.4
2023-12-31T05:19:03,42.805,6.029,0.003,-0.033,-0.024,105.0,106.0,102.0,13.3,1505.2,4.5,-0.8,1.8,2471.487,13.29,0.033,174.8
2023-12-31T05:22:03,42.805,6.029,0.041,-0.052,0.013,105.0,103.0,102.0,13.4,1505.2,357.7,-0.8,1.8,2471.5,13.29,0.066,141.7
2023-12-31T05:25:03,42.805,6.029,0.029,-0.042,0.009,105.0,105.0,101.0,13.4,1505.2,2.4,-0.8,1.8,2471.448,13.29,0.051,145.4
2023-12-31T05:28:03,42.805,6.029,0.022,-0.022,-0.023,105.0,104.0,103.0,13.4,1505.2,342.0,-0.8,1.8,2471.483,13.29,0.031,135.0
2023-12-31T05:31:03,42.805,6.029,-0.004,-0.027,-0.022,105.0,104.0,103.0,13.4,1505.2,359.1,-0.8,1.8,2471.504,13.29,0.027,188.4
2023-12-31T05:34:03,42.805,6.029,0.019,0.0,0.014,105.0,104.0,102.0,13.3,1505.2,345.0,-0.8,1.8,2471.476,13.29,0.019,90.0
2023-12-31T05:37:03,42.805,6.029,0.023,-0.026,-0.034,104.0,104.0,102.0,13.4,1505.2,349.4,-0.8,1.8,2471.502,13.29,0.034,138.5
2023-12-31T05:40:03,42.805,6.029,0.016,-0.021,-0.02,104.0,105.0,102.0,13.3,1505.2,4.0,-0.8,1.8,2471.491,13.29,0.026,142.7
2023-12-31T05:43:03,42.805,6.029,0.018,0.017,-0.007,104.0,104.0,103.0,13.3,1505.2,342.8,-0.8,1.8,2471.515,13.29,0.024,46.6
2023-12-31T05:46:03,42.805,6.029,0.024,-0.028,-0.034,105.0,104.0,101.0,13.4,1505.2,345.2,-0.8,1.8,2471.473,13.29,0.036,139.4
2023-12-31T05:49:03,42.805,6.029,0.03,-0.036,-0.04,104.0,103.0,102.0,13.4,1505.2,340.8,-0.8,1.8,2471.475,13.29,0.046,140.2
2023-12-31T05:52:03,42.805,6.029,0.017,-0.023,-0.018,104.0,104.0,102.0,13.4,1505.2,355.7,-0.7,1.8,2471.496,13.29,0.028,143.5
2023-12-31T05:55:03,42.805,6.029,0.029,-0.012,-0.015,104.0,104.0,103.0,13.4,1505.2,339.4,-0.7,1.8,2471.488,13.29,0.031,112.5
2023-12-31T05:58:03,42.805,6.029,0.019,-0.008,-0.03,103.0,106.0,103.0,13.4,1505.2,348.9,-0.8,1.8,2471.527,13.29,0.02,112.8
2023-12-31T06:04:03,42.805,6.029,0.019,-0.043,-0.01,104.0,104.0,101.0,13.4,1505.2,351.6,-0.8,1.8,2471.552,13.28,0.047,156.2
2023-12-31T06:07:03,42.805,6.029,0.005,-0.032,0.0,105.0,104.0,101.0,13.3,1505.2,2.2,-0.8,1.8,2471.561,13.29,0.032,171.1
2023-12-31T06:10:03,42.805,6.029,0.036,-0.04,-0.015,104.0,104.0,102.0,13.3,1505.2,356.9,-0.8,1.8,2471.569,13.29,0.053,138.0
2023-12-31T06:13:03,42.805,6.029,0.008,-0.043,-0.047,104.0,104.0,101.0,13.4,1505.2,359.2,-0.7,1.8,2471.53,13.29,0.043,169.5
2023-12-31T06:16:03,42.805,6.029,0.028,-0.019,-0.005,105.0,103.0,102.0,13.3,1505.2,340.1,-0.8,1.8,2471.563,13.29,0.033,124.2
2023-12-31T06:19:03,42.805,6.029,0.015,-0.025,0.01,105.0,104.0,102.0,13.3,1505.2,343.9,-0.8,1.8,2471.521,13.29,0.029,149.0
2023-12-31T06:22:03,42.805,6.029,0.017,-0.015,-0.039,105.0,103.0,103.0,13.4,1505.2,2.4,-0.8,1.8,2471.532,13.29,0.022,131.4
2023-12-31T06:25:03,42.805,6.029,0.025,-0.039,0.019,104.0,103.0,103.0,13.4,1505.2,343.3,-0.8,1.8,2471.556,13.29,0.046,147.3
2023-12-31T06:28:03,42.805,6.029,0.01,-0.038,-0.017,105.0,106.0,102.0,13.4,1505.2,354.9,-0.8,1.8,2471.561,13.29,0.039,165.3
2023-12-31T06:31:03,42.805,6.029,0.034,-0.019,0.009,103.0,106.0,102.0,13.4,1505.2,345.2,-0.7,1.8,2471.562,13.29,0.038,119.2
2023-12-31T06:34:03,42.805,6.029,0.015,-0.049,-0.035,107.0,103.0,103.0,13.4,1505.2,354.6,-0.7,1.8,2471.565,13.29,0.051,163.0
2023-12-31T06:37:03,42.805,6.029,0.008,-0.041,-0.048,105.0,104.0,102.0,13.4,1505.2,357.0,-0.7,1.8,2471.53,13.29,0.041,169.0
2023-12-31T06:40:03,42.805,6.029,0.013,-0.033,-0.023,105.0,105.0,102.0,13.3,1505.2,357.5,-0.7,1.8,2471.544,13.29,0.035,158.5
2023-12-31T06:43:03,42.805,6.029,0.008,-0.052,-0.036,104.0,103.0,103.0,13.3,1505.2,1.6,-0.8,1.8,2471.574,13.29,0.052,171.3
2023-12-31T06:46:03,42.805,6.029,0.02,-0.017,-0.026,105.0,103.0,103.0,13.3,1505.2,342.0,-0.7,1.8,2471.561,13.29,0.026,130.4
2023-12-31T06:49:03,42.805,6.029,0.021,-0.04,-0.023,105.0,104.0,102.0,13.4,1505.2,346.1,-0.8,1.8,2471.581,13.29,0.045,152.3
2023-12-31T06:52:03,42.805,6.029,0.012,-0.028,-0.015,105.0,103.0,103.0,13.3,1505.2,343.8,-0.8,1.8,2471.548,13.29,0.03,156.8
2023-12-31T06:55:03,42.805,6.029,0.046,-0.029,0.021,105.0,104.0,103.0,13.4,1505.2,347.0,-0.8,1.8,2471.591,13.29,0.054,122.2
2023-12-31T06:58:03,42.805,6.029,0.0,-0.029,-0.007,104.0,104.0,103.0,13.4,1505.2,348.5,-0.8,1.8,2471.547,13.29,0.028,180.0
2023-12-31T07:04:03,42.805,6.029,0.032,-0.028,0.002,104.0,104.0,102.0,13.4,1505.2,344.9,-0.8,1.8,2471.625,13.28,0.042,131.2
2023-12-31T07:07:03,42.805,6.029,0.014,-0.035,0.002,104.0,104.0,102.0,13.4,1505.2,347.7,-0.8,1.8,2471.609,13.29,0.037,158.2
2023-12-31T07:10:03,42.805,6.029,0.027,-0.017,-0.01,104.0,103.0,103.0,13.3,1505.2,342.0,-0.8,1.8,2471.605,13.29,0.031,122.2
2023-12-31T07:13:03,42.805,6.029,0.005,-0.022,-0.006,104.0,105.0,103.0,13.4,1505.2,347.7,-0.8,1.8,2471.645,13.29,0.022,167.2
2023-12-31T07:16:03,42.805,6.029,0.022,-0.015,-0.02,104.0,105.0,103.0,13.4,1505.2,356.9,-0.8,1.8,2471.611,13.29,0.026,124.3
2023-12-31T07:19:03,42.805,6.029,0.024,-0.031,-0.019,106.0,106.0,102.0,13.3,1505.2,353.0,-0.8,1.8,2471.597,13.29,0.039,142.3
2023-12-31T07:22:03,42.805,6.029,0.008,-0.048,-0.043,103.0,105.0,103.0,13.4,1505.2,2.3,-0.8,1.8,2471.607,13.29,0.048,170.5
2023-12-31T07:25:03,42.805,6.029,0.019,-0.028,-0.033,104.0,105.0,103.0,13.4,1505.2,355.7,-0.8,1.8,2471.615,13.29,0.033,145.8
2023-12-31T07:28:03,42.805,6.029,0.023,-0.043,-0.012,106.0,104.0,102.0,13.4,1505.2,1.5,-0.8,1.8,2471.589,13.29,0.048,151.9
2023-12-31T07:31:03,42.805,6.029,0.031,-0.032,-0.002,104.0,104.0,103.0,13.4,1505.2,357.5,-0.8,1.8,2471.604,13.29,0.044,135.9
2023-12-31T07:34:03,42.805,6.029,0.022,-0.014,-0.051,104.0,104.0,103.0,13.4,1505.2,358.3,-0.8,1.8,2471.6,13.29,0.026,122.5
2023-12-31T07:37:03,42.805,6.029,0.023,-0.019,0.002,103.0,104.0,102.0,13.4,1505.2,343.5,-0.8,1.8,2471.623,13.29,0.029,129.6
2023-12-31T07:40:03,42.805,6.029,0.024,-0.034,0.02,105.0,104.0,103.0,13.4,1505.2,352.6,-0.8,1.8,2471.581,13.29,0.041,144.8
2023-12-31T07:43:03,42.805,6.029,0.015,-0.03,-0.019,105.0,105.0,103.0,13.4,1505.2,2.4,-0.8,1.8,2471.635,13.29,0.033,153.4
2023-12-31T07:46:03,42.805,6.029,0.034,-0.035,0.004,105.0,105.0,103.0,13.4,1505.2,349.9,-0.8,1.8,2471.602,13.29,0.048,135.8
2023-12-31T07:49:03,42.805,6.029,0.017,-0.035,-0.006,105.0,105.0,103.0,13.4,1505.2,346.3,-0.8,1.8,2471.619,13.29,0.038,154.1
2023-12-31T07:52:03,42.805,6.029,0.038,-0.035,-0.012,105.0,104.0,102.0,13.4,1505.2,340.4,-0.8,1.8,2471.611,13.29,0.051,132.6
2023-12-31T07:55:03,42.805,6.029,0.018,-0.035,-0.045,105.0,103.0,102.0,13.4,1505.2,347.7,-0.8,1.8,2471.61,13.29,0.039,152.8
2023-12-31T07:58:03,42.805,6.029,0.005,-0.02,-0.014,104.0,104.0,102.0,13.4,1505.2,342.7,-0.7,1.8,2471.639,13.29,0.02,166.0
2023-12-31T09:04:02,42.805,6.029,0.023,-0.018,-0.008,105.0,104.0,102.0,13.4,1505.2,348.1,-0.8,1.8,2472.25,13.28,0.029,128.0
2023-12-31T09:07:03,42.805,6.029,0.016,-0.046,-0.01,104.0,105.0,102.0,13.4,1505.2,2.2,-0.7,1.8,2472.134,13.28,0.048,160.8
2023-12-31T09:10:03,42.805,6.029,0.022,-0.005,-0.015,105.0,104.0,102.0,13.3,1505.2,343.7,-0.8,1.8,2471.98,13.28,0.022,102.8
2023-12-31T09:13:03,42.805,6.029,-0.002,-0.037,-0.048,104.0,105.0,102.0,13.4,1505.2,0.8,-0.8,1.8,2471.944,13.28,0.037,183.1
2023-12-31T09:16:03,42.805,6.029,0.008,-0.027,-0.04,105.0,105.0,102.0,13.3,1505.2,341.3,-0.8,1.8,2471.874,13.29,0.028,163.5
2023-12-31T09:19:03,42.805,6.029,0.014,-0.012,0.007,105.0,104.0,102.0,13.3,1505.2,342.6,-0.8,1.9,2471.829,13.29,0.018,130.6
2023-12-31T09:22:03,42.805,6.029,0.015,-0.013,-0.016,105.0,105.0,102.0,13.3,1505.2,356.5,-0.8,1.8,2471.831,13.29,0.019,130.9
2023-12-31T09:25:03,42.805,6.029,0.041,-0.026,-0.009,104.0,103.0,103.0,13.3,1505.2,359.2,-0.8,1.8,2471.767,13.29,0.048,122.4
2023-12-31T09:28:03,42.805,6.029,0.014,-0.02,-0.004,105.0,104.0,103.0,13.3,1505.2,350.1,-0.7,1.8,2471.739,13.29,0.024,145.0
2023-12-31T09:31:03,42.805,6.029,0.026,-0.038,-0.011,105.0,103.0,102.0,13.4,1505.2,348.9,-0.7,1.8,2471.74,13.29,0.046,145.6
2023-12-31T09:34:03,42.805,6.029,0.037,-0.028,0.001,104.0,104.0,102.0,13.4,1505.2,358.5,-0.8,1.8,2471.679,13.29,0.046,127.1
2023-12-31T09:37:03,42.805,6.029,0.001,-0.003,-0.01,106.0,103.0,101.0,13.4,1505.2,359.2,-0.8,1.8,2471.711,13.29,0.003,161.6
2023-12-31T09:40:03,42.805,6.029,0.018,-0.027,-0.013,105.0,104.0,102.0,13.4,1505.2,0.0,-0.7,1.8,2471.654,13.29,0.032,146.3
2023-12-31T09:43:03,42.805,6.029,0.015,-0.042,-0.023,105.0,103.0,102.0,13.3,1505.2,354.1,-0.8,1.8,2471.718,13.29,0.044,160.4
2023-12-31T09:46:03,42.805,6.029,0.038,-0.011,0.005,104.0,104.0,102.0,13.4,1505.2,3.0,-0.8,1.8,2471.678,13.29,0.039,106.1
2023-12-31T09:49:03,42.805,6.029,0.011,-0.034,0.012,104.0,104.0,102.0,13.4,1505.2,349.6,-0.8,1.8,2471.706,13.29,0.035,162.1
2023-12-31T09:52:03,42.805,6.029,0.038,-0.046,0.041,106.0,103.0,102.0,13.3,1505.2,354.2,-0.8,1.8,2471.661,13.29,0.059,140.4
2023-12-31T09:55:03,42.805,6.029,0.015,-0.005,-0.023,104.0,104.0,102.0,13.3,1505.2,350.8,-0.8,1.8,2471.669,13.29,0.015,108.4
2023-12-31T09:58:03,42.805,6.029,0.002,-0.017,-0.033,105.0,104.0,101.0,13.3,1505.2,357.5,-0.8,1.8,2471.668,13.29,0.017,173.3
2023-12-31T10:04:03,42.805,6.029,0.015,-0.031,0.044,105.0,104.0,102.0,13.4,1505.2,357.5,-0.8,1.8,2471.725,13.28,0.034,154.2
2023-12-31T10:07:03,42.805,6.029,0.002,-0.023,-0.029,105.0,104.0,102.0,13.4,1505.2,1.6,-0.8,1.8,2471.712,13.29,0.023,175.0
2023-12-31T10:10:03,42.805,6.029,0.035,-0.019,0.009,104.0,104.0,102.0,13.3,1505.2,343.3,-0.7,1.8,2471.729,13.29,0.039,118.5
2023-12-31T10:13:03,42.805,6.029,0.016,-0.018,0.008,105.0,104.0,102.0,13.3,1505.2,349.9,-0.8,1.8,2471.714,13.29,0.024,138.4
2023-12-31T10:16:03,42.805,6.029,0.039,-0.021,0.021,104.0,107.0,101.0,13.4,1505.2,355.7,-0.7,1.8,2471.717,13.29,0.044,118.3
2023-12-31T10:19:03,42.805,6.029,0.018,0.003,0.001,105.0,104.0,102.0,13.4,1505.2,344.7,-0.8,1.8,2471.705,13.29,0.018,80.5
2023-12-31T10:22:03,42.805,6.029,0.032,-0.025,0.011,104.0,105.0,102.0,13.3,1505.2,346.5,-0.8,1.8,2471.71,13.29,0.04,128.0
2023-12-31T10:25:03,42.805,6.029,0.025,-0.018,-0.012,106.0,104.0,103.0,13.4,1505.2,343.3,-0.8,1.8,2471.69,13.29,0.03,125.8
2023-12-31T10:28:03,42.805,6.029,0.014,-0.025,0.009,104.0,105.0,101.0,13.4,1505.2,352.5,-0.8,1.8,2471.689,13.29,0.028,150.7
2023-12-31T10:31:03,42.805,6.029,0.017,-0.009,-0.014,106.0,104.0,103.0,13.4,1505.2,342.8,-0.8,1.8,2471.706,13.29,0.019,117.9
2023-12-31T10:34:03,42.805,6.029,0.035,-0.017,-0.005,104.0,105.0,102.0,13.4,1505.2,347.9,-0.8,1.8,2471.699,13.29,0.038,115.9
2023-12-31T10:37:03,42.805,6.029,0.007,-0.018,0.0,104.0,104.0,102.0,13.4,1505.2,1.5,-0.7,1.8,2471.668,13.29,0.019,158.8
2023-12-31T10:40:03,42.805,6.029,0.031,-0.016,0.002,104.0,105.0,102.0,13.4,1505.2,344.3,-0.8,1.8,2471.673,13.29,0.034,117.3
2023-12-31T10:43:03,42.805,6.029,0.013,-0.021,-0.04,104.0,104.0,102.0,13.4,1505.2,349.1,-0.8,1.8,2471.692,13.29,0.024,148.2
2023-12-31T10:46:03,42.805,6.029,0.03,-0.016,-0.013,105.0,105.0,102.0,13.3,1505.2,350.0,-0.8,1.8,2471.692,13.29,0.034,118.1
2023-12-31T10:49:03,42.805,6.029,0.02,-0.022,-0.004,104.0,104.0,103.0,13.3,1505.2,346.5,-0.8,1.8,2471.699,13.29,0.029,137.7
2023-12-31T10:52:03,42.805,6.029,0.029,-0.038,-0.007,104.0,104.0,102.0,13.3,1505.2,4.4,-0.8,1.8,2471.7,13.29,0.047,142.7
2023-12-31T10:55:03,42.805,6.029,0.033,-0.012,0.012,104.0,103.0,102.0,13.4,1505.2,352.6,-0.8,1.8,2471.682,13.29,0.035,110.0
2023-12-31T10:58:03,42.805,6.029,-0.001,-0.003,-0.001,104.0,105.0,102.0,13.4,1505.2,359.2,-0.8,1.8,2471.69,13.29,0.003,198.4
2023-12-31T12:04:02,42.805,6.029,0.001,-0.015,0.028,105.0,105.0,104.0,13.3,1505.2,349.6,-0.8,1.8,2472.23,13.28,0.015,176.2
2023-12-31T12:07:03,42.805,6.029,0.006,-0.018,-0.014,107.0,106.0,103.0,13.3,1505.2,342.9,-0.8,1.8,2472.095,13.28,0.018,161.6
2023-12-31T12:10:03,42.805,6.029,0.019,-0.035,-0.001,107.0,107.0,102.0,13.4,1505.2,356.7,-0.8,1.8,2472.007,13.28,0.039,151.5
2023-12-31T12:13:03,42.805,6.029,0.04,-0.034,-0.005,108.0,105.0,103.0,13.4,1505.2,353.4,-0.8,1.8,2471.869,13.28,0.052,130.4
2023-12-31T12:16:03,42.805,6.029,0.024,-0.018,-0.022,106.0,108.0,103.0,13.4,1505.2,350.7,-0.8,1.8,2471.861,13.29,0.03,126.9
2023-12-31T12:19:03,42.805,6.029,0.012,0.009,-0.019,107.0,107.0,104.0,13.4,1505.2,354.7,-0.8,1.8,2471.782,13.29,0.015,53.1
2023-12-31T12:22:03,42.805,6.029,0.017,-0.016,-0.009,107.0,107.0,104.0,13.4,1505.2,0.0,-0.8,1.8,2471.733,13.29,0.023,133.3
2023-12-31T12:25:03,42.805,6.029,0.023,-0.02,0.004,107.0,107.0,105.0,13.4,1505.2,340.8,-0.8,1.8,2471.663,13.29,0.03,131.0
2023-12-31T12:28:03,42.805,6.029,0.029,-0.021,-0.025,108.0,106.0,105.0,13.4,1505.2,345.5,-0.7,1.8,2471.663,13.29,0.035,125.9
2023-12-31T12:31:03,42.805,6.029,0.029,-0.006,-0.032,109.0,107.0,105.0,13.4,1505.2,341.0,-0.8,1.8,2471.694,13.29,0.029,101.7
2023-12-31T12:34:03,42.805,6.029,0.012,-0.009,-0.036,109.0,107.0,104.0,13.3,1505.2,348.9,-0.8,1.8,2471.607,13.29,0.015,126.9
2023-12-31T12:37:03,42.805,6.029,0.03,-0.035,-0.012,108.0,108.0,106.0,13.4,1505.2,357.1,-0.8,1.8,2471.615,13.29,0.046,139.4
2023-12-31T12:40:03,42.805,6.029,0.002,-0.036,-0.001,107.0,107.0,104.0,13.3,1505.2,359.2,-0.8,1.8,2471.652,13.29,0.036,176.8
2023-12-31T12:43:03,42.805,6.029,0.01,-0.031,-0.029,107.0,107.0,104.0,13.4,1505.2,0.7,-0.8,1.8,2471.62,13.29,0.032,162.1
2023-12-31T12:46:03,42.805,6.029,0.009,-0.021,-0.026,107.0,107.0,105.0,13.4,1505.2,359.1,-0.8,1.8,2471.591,13.29,0.022,156.8
2023-12-31T12:49:03,42.805,6.029,0.018,-0.024,-0.015,108.0,107.0,105.0,13.3,1505.2,349.1,-0.8,1.8,2471.594,13.29,0.03,143.1
2023-12-31T12:52:03,42.805,6.029,0.022,-0.025,-0.028,108.0,108.0,104.0,13.4,1505.2,356.5,-0.8,1.8,2471.596,13.29,0.033,138.7
2023-12-31T12:55:03,42.805,6.029,0.016,-0.014,-0.008,107.0,107.0,105.0,13.3,1505.2,342.4,-0.8,1.8,2471.578,13.29,0.021,131.2
2023-12-31T12:58:03,42.805,6.029,0.015,-0.042,0.016,106.0,107.0,104.0,13.3,1505.2,355.5,-0.7,1.8,2471.609,13.29,0.044,160.4
2023-12-31T13:04:03,42.805,6.029,0.0,-0.025,-0.012,110.0,107.0,103.0,13.4,1505.2,353.7,-0.8,1.8,2471.638,13.29,0.025,180.0
2023-12-31T13:07:03,42.805,6.029,0.004,-0.009,-0.011,107.0,106.0,104.0,13.4,1505.2,349.8,-0.7,1.8,2471.628,13.29,0.009,156.0
2023-12-31T13:10:03,42.805,6.029,0.042,-0.007,-0.02,106.0,107.0,104.0,13.4,1505.2,349.0,-0.8,1.8,2471.631,13.29,0.042,99.5
2023-12-31T13:13:03,42.805,6.029,0.033,-0.027,-0.029,107.0,105.0,105.0,13.4,1505.2,348.6,-0.8,1.8,2471.603,13.29,0.042,129.3
2023-12-31T13:16:03,42.805,6.029,0.017,-0.03,0.01,108.0,105.0,104.0,13.4,1505.2,352.6,-0.8,1.8,2471.606,13.29,0.034,150.5
2023-12-31T13:19:03,42.805,6.029,0.007,-0.015,-0.002,107.0,105.0,104.0,13.4,1505.2,356.0,-0.7,1.8,2471.592,13.29,0.016,155.0
2023-12-31T13:22:03,42.805,6.029,0.001,-0.02,-0.025,108.0,107.0,104.0,13.4,1505.2,0.0,-0.7,1.8,2471.615,13.29,0.02,177.1
2023-12-31T13:25:03,42.805,6.029,0.029,-0.026,-0.027,107.0,106.0,104.0,13.3,1505.2,341.3,-0.8,1.8,2471.583,13.29,0.038,131.9
2023-12-31T13:28:03,42.805,6.029,0.009,-0.016,-0.009,108.0,107.0,104.0,13.4,1505.2,353.9,-0.8,1.8,2471.565,13.29,0.018,150.6
2023-12-31T13:31:03,42.805,6.029,0.011,-0.018,-0.037,108.0,107.0,104.0,13.4,1505.2,2.9,-0.8,1.8,2471.607,13.29,0.021,148.6
2023-12-31T13:34:03,42.805,6.029,0.012,-0.022,-0.029,108.0,107.0,104.0,13.4,1505.2,355.3,-0.7,1.8,2471.609,13.29,0.025,151.4
2023-12-31T13:37:03,42.805,6.029,0.011,0.003,0.0,108.0,107.0,105.0,13.4,1505.2,347.7,-0.8,1.8,2471.555,13.29,0.011,74.7
2023-12-31T13:40:03,42.805,6.029,0.01,-0.026,-0.015,109.0,108.0,105.0,13.4,1505.2,359.1,-0.8,1.8,2471.592,13.29,0.027,159.0
2023-12-31T13:43:03,42.805,6.029,0.017,-0.022,-0.017,108.0,107.0,104.0,13.4,1505.2,340.3,-0.7,1.8,2471.602,13.29,0.027,142.3
2023-12-31T13:46:03,42.805,6.029,0.009,0.001,-0.014,107.0,108.0,105.0,13.4,1505.2,354.6,-0.8,1.8,2471.562,13.29,0.009,83.7
2023-12-31T13:49:03,42.805,6.029,0.008,-0.047,0.012,107.0,107.0,105.0,13.4,1505.2,4.5,-0.8,1.8,2471.577,13.29,0.047,170.3
2023-12-31T13:52:03,42.805,6.029,0.024,-0.014,0.021,108.0,107.0,105.0,13.4,1505.2,355.7,-0.8,1.8,2471.576,13.29,0.027,120.3
2023-12-31T13:55:03,42.805,6.029,0.029,-0.031,-0.015,109.0,109.0,104.0,13.4,1505.2,347.7,-0.8,1.8,2471.553,13.29,0.042,136.9